Flag for Switzerland Weather past 2 weeks in Kriens, Lucerne, Switzerland

Now
59 °F

Cool.


Feels Like: 59 °F
Forecast: 49 / 67 °F
Wind: 2 mph from Southwest

Location: Giswil

Current Time: Sep 3, 2015 at 12:53:29 AM

Latest Report: Sep 2, 2015 at 10:00 PM


Visibility: N/A

Pressure: 29.99 "Hg

Humidity: 97%

Dew point: 58 °F

Location of KriensLocation

Historic Weather in Kriens — Graph

°F

Kriens temperature yesterday

Maximum temperature yesterday: 67 °F (at 2:00 PM)
Minimum temperature yesterday: 57 °F (at 7:00 AM)
Average temperature yesterday: 61 °F

Past Weeks' High & Low Weather Summary

 TemperatureHumidityPressure
High89 °F (Aug 30, 3:00 PM)100% (Aug 21, 3:00 AM)30.29 "Hg (Aug 21, 3:00 AM)
Low47 °F (Aug 20, 7:00 AM)31% (Aug 30, 4:00 PM)29.70 "Hg (Aug 24, 2:00 PM)
Average64 °F80%30.03 "Hg
* Reported Aug 18 10:00 PM — Sep 2 10:00 PM, Kriens, Weather by CustomWeather, © 2015

Note: Actual official high and low records may vary slightly from our data, if they occured in-between our weather recording intervals... More about our weather records

Advertising

Kriens weather history for previous 24 hours

 ConditionsComfort  
Time TempWeatherWind HumidityBarometerVisibility
10:00 PM
Wed, Sep 2
59 °FCool.2 mph97%29.99 "HgN/A
9:00 PM60 °FCool.1 mph98%29.98 "HgN/A
8:00 PM60 °FCool.2 mph93%29.99 "HgN/A
7:00 PM61 °FCool.3 mph92%29.99 "HgN/A
6:00 PM62 °FCool.3 mph86%29.99 "HgN/A
5:00 PM64 °FMild.2 mph80%29.98 "HgN/A
4:00 PM65 °FMild.1 mph77%29.96 "HgN/A
3:00 PM67 °FMild.3 mph67%29.96 "HgN/A
2:00 PM67 °FMild.5 mph67%29.96 "HgN/A
1:00 PM66 °FMild.3 mph71%29.97 "HgN/A
12:00 PM65 °FMild.2 mph67%29.99 "HgN/A
11:00 AM64 °FMild.2 mph75%29.99 "HgN/A
10:40 AM63 °FMild.2 mph77%30.00 "HgN/A
10:00 AM62 °FCool.1 mph81%30.01 "HgN/A
9:00 AM59 °FCool.1 mph90%30.03 "HgN/A
8:00 AM58 °FCool.1 mph97%30.04 "HgN/A
7:00 AM57 °FCool.1 mph99%30.04 "HgN/A
5:00 AM57 °FCool.2 mph99%30.07 "HgN/A
4:00 AM57 °FCool.3 mph95%30.08 "HgN/A
3:00 AM59 °FCool.2 mph99%30.07 "HgN/A
2:00 AM59 °FCool.1 mph99%30.07 "HgN/A
1:00 AM60 °FCool.2 mph100%30.08 "HgN/A
12:00 AM60 °FCool.No wind99%30.08 "HgN/A
Weather by CustomWeather, © 2015

See weather overviewHow to use our weather pages